2024/03/21 00:00:00,44.7,-4.1
2024/03/21 00:10:00,44.7,-4.1
2024/03/21 00:20:00,44.7,-4.0
2024/03/21 00:30:00,44.7,-3.7
2024/03/21 00:40:00,44.8,-4.1
2024/03/21 00:50:00,44.8,-4.1
2024/03/21 01:00:00,45.0,-4.1
2024/03/21 01:10:00,45.0,-4.0
2024/03/21 01:20:00,45.0,-4.2
2024/03/21 01:30:00,45.0,-4.5
2024/03/21 01:40:00,45.0,-4.9
2024/03/21 01:50:00,45.0,-4.2
2024/03/21 02:00:00,45.0,-4.5
2024/03/21 02:10:00,44.9,-4.4
2024/03/21 02:20:00,44.9,-4.3
2024/03/21 02:30:00,44.8,-4.3
2024/03/21 02:40:00,44.8,-4.5
2024/03/21 02:50:00,44.8,-5.3
2024/03/21 03:00:00,44.7,-4.5
2024/03/21 03:10:00,44.7,-4.2
2024/03/21 03:20:00,44.7,-4.9
2024/03/21 03:30:00,44.8,-4.8
2024/03/21 03:40:00,45.0,-5.1
2024/03/21 03:50:00,45.3,-5.1
2024/03/21 04:00:00,45.0,-4.7
2024/03/21 04:10:00,44.8,-4.8
2024/03/21 04:20:00,44.7,-4.5
2024/03/21 04:30:00,44.7,-4.4
2024/03/21 04:40:00,44.5,-4.3
2024/03/21 04:50:00,44.4,-4.6
2024/03/21 05:00:00,44.4,-4.5
2024/03/21 05:10:00,44.5,-4.9
2024/03/21 05:20:00,44.5,-4.5
2024/03/21 05:30:00,44.4,-4.5
2024/03/21 05:40:00,44.5,-4.7
2024/03/21 05:50:00,44.5,-4.7
2024/03/21 06:00:00,44.6,-4.3
2024/03/21 06:10:00,44.6,-3.8
2024/03/21 06:20:00,44.3,-4.2
2024/03/21 06:30:00,44.5,-4.3
2024/03/21 06:40:00,44.5,-3.9
2024/03/21 06:50:00,44.4,-4.0
2024/03/21 07:00:00,44.4,-3.7
2024/03/21 07:10:00,44.4,-3.4
2024/03/21 07:20:00,44.3,-2.5
2024/03/21 07:30:00,44.2,-3.5
2024/03/21 07:40:00,44.2,-3.2
2024/03/21 07:50:00,44.0,-2.9
2024/03/21 08:00:00,44.2,-3.1
2024/03/21 08:10:00,44.7,-2.2
2024/03/21 08:20:00,44.4,-1.5
2024/03/21 08:30:00,44.3,-0.9
2024/03/21 08:40:00,44.4,-0.6
2024/03/21 08:50:00,44.2,-1.2
2024/03/21 09:00:00,44.4,-1.2
2024/03/21 09:10:00,44.2,-1.4
2024/03/21 09:20:00,44.2,-1.9
2024/03/21 09:30:00,45.0,-1.7
2024/03/21 09:40:00,45.0,-1.1
2024/03/21 09:50:00,44.7,-0.9
                              2024/03/21 12:00:00,---,-0.5
2024/03/21 12:10:00,25.0, 0.9
2024/03/21 12:20:00,42.3,-0.0
2024/03/21 12:30:00,42.9, 0.1
2024/03/21 12:40:00,42.7,-0.2
2024/03/21 12:50:00,42.7, 1.2
2024/03/21 13:00:00,42.3, 1.2
2024/03/21 13:10:00,42.3, 2.1
2024/03/21 13:20:00,43.0, 0.9
2024/03/21 13:30:00,42.8,-0.1
2024/03/21 13:40:00,43.0, 0.2
2024/03/21 13:50:00,43.4, 1.2
2024/03/21 14:00:00,43.0, 1.7
2024/03/21 14:10:00,43.1, 1.9
2024/03/21 14:20:00,42.7, 2.5
2024/03/21 14:30:00,42.5, 2.8
2024/03/21 14:40:00,42.0, 3.9
2024/03/21 14:50:00,41.1, 4.0
2024/03/21 15:00:00,41.4, 3.5
2024/03/21 15:10:00,41.8, 2.2
2024/03/21 15:20:00,42.0, 1.5
2024/03/21 15:30:00,41.9, 1.7
2024/03/21 15:40:00,42.1, 1.3
2024/03/21 15:50:00,41.9, 0.8
2024/03/21 16:00:00,41.8, 1.3
2024/03/21 16:10:00,41.8, 1.0
2024/03/21 16:20:00,42.1, 0.8
2024/03/21 16:30:00,42.1, 0.5
2024/03/21 16:40:00,42.1, 0.2
2024/03/21 16:50:00,42.2,-0.2
2024/03/21 17:00:00,42.3,-0.0
2024/03/21 17:10:00,42.9,-0.3
2024/03/21 17:20:00,43.0,-0.6
2024/03/21 17:30:00,43.2,-0.8
2024/03/21 17:40:00,43.4,-1.2
2024/03/21 17:50:00,43.4,-1.5
2024/03/21 18:00:00,43.4,-1.4
2024/03/21 18:10:00,43.8,-1.7
2024/03/21 18:20:00,44.0,-1.7
2024/03/21 18:30:00,44.1,-1.8
2024/03/21 18:40:00,44.5,-1.5
2024/03/21 18:50:00,44.9,-1.9
2024/03/21 19:00:00,45.1,-1.8
2024/03/21 19:10:00,45.3,-1.7
2024/03/21 19:20:00,45.4,-2.1
2024/03/21 19:30:00,45.8,-2.0
2024/03/21 19:40:00,46.3,-1.9
2024/03/21 19:50:00,46.3,-2.0
2024/03/21 20:00:00,46.4,-2.1
2024/03/21 20:10:00,46.7,-2.7
2024/03/21 20:20:00,47.1,-2.3
2024/03/21 20:30:00,47.0,-2.4
2024/03/21 20:40:00,47.1,-2.7
2024/03/21 20:50:00,47.7,-2.5
2024/03/21 21:00:00,47.9,-2.9
2024/03/21 21:10:00,48.0,-3.1
2024/03/21 21:20:00,48.2,-2.8
2024/03/21 21:30:00,48.5,-3.2
2024/03/21 21:40:00,48.8,-2.8
2024/03/21 21:50:00,48.9,-2.7
2024/03/21 22:00:00,49.3,-2.4
2024/03/21 22:10:00,49.7,-2.8
2024/03/21 22:20:00,49.8,-2.7
2024/03/21 22:30:00,49.7,-2.9
2024/03/21 22:40:00,49.6,-2.8
2024/03/21 22:50:00,49.5,-2.8
2024/03/21 23:00:00,49.2,-2.8
2024/03/21 23:10:00,49.1,-2.8
2024/03/21 23:20:00,49.0,-2.7
2024/03/21 23:30:00,49.0,-2.7
2024/03/21 23:40:00,49.0,-2.7
2024/03/21 23:50:00,49.1,-3.0
